[[{"header":{"parameterUnit":"m.s-1","parameterCategory":1,"la1":30.2991,"la2":30.254,"lo1":-89.0895,"lo2":-89.0444,"dx":0.0017,"dy":0.0017,"nx":28,"ny":28,"refTime":"2022-12-24T09:00:00:Z","depth":0,"parameterNumber":2,"parameterNumberName":"U-component_of_WINDS"},"data":[0,0,0,0,0,0,0,0,0,0,0,0,0,0,0,0,0,0,0,0,0,0,0,0,0,0,0,0,0,0,0,0,0,0,0,0,0,0,0,0,0,0,0,0,0,0,0,0,0,0,0,0,0,0,0,0,0,0,0.3538,0.3538,0,0.353,0.353,0.353,0.3539,0.3539,0.354,0.354,0.353,0.3529,0.3529,0,0,0,0,0,0,0,0,0,0,0,0,0,0.3562,0.3562,0.3538,0.3538,0.3538,0.353,0.353,0.353,0.3539,0.3539,0.354,0.354,0.353,0.353,0.3529,0,0,0,0,0,0,0,0,0,0,0,0,0,0.3552,0.3561,0.3538,0.3542,0.3542,0.353,0.353,0.353,0.3539,0.3539,0.354,0.354,0.353,0.353,0.3529,0.3513,0,0,0.3526,0.3526,0,0,0,0,0,0,0,0,0.3553,0.3552,0.3541,0.3541,0.3542,0.3536,0.3535,0.3524,0.3539,0.354,0.354,0.3541,0.3532,0.3531,0.3528,0.3512,0.3512,0.3526,0.3525,0.3525,0.3525,0,0,0,0,0,0,0,0.3554,0.3552,0.3535,0.3541,0.3541,0.3544,0.3543,0.3533,0.3533,0.354,0.354,0.3539,0.3532,0.3529,0.3528,0.3511,0.3526,0.3525,0.3525,0.3524,0.3484,0.3483,0,0,0,0,0,0,0.3554,0.3552,0.3535,0.3535,0.3549,0.3543,0.3542,0.3537,0.3533,0.3533,0.3539,0.354,0.353,0.3529,0.3527,0.3509,0.3525,0.3524,0.3524,0.3484,0.3484,0.3483,0,0,0,0,0,0,0.3555,0.3552,0.3535,0.3544,0.3542,0.3542,0.3536,0.3537,0.3534,0.3532,0.3532,0.3536,0.353,0.3529,0.3517,0.3509,0.3524,0.3523,0.3485,0.3484,0.3483,0.3471,0,0,0,0,0,0,0.3555,0.3552,0.3546,0.3544,0.3541,0.3525,0.3536,0.3536,0.3532,0.3533,0.3529,0.3529,0.3531,0.3518,0.3516,0.3508,0.3522,0.3486,0.3484,0.3484,0.3472,0.347,0.3468,0,0,0,0,0,0.3556,0.3542,0.3546,0.3544,0.3533,0.3524,0.3523,0.3525,0.3532,0.3525,0.3525,0.3529,0.351,0.3517,0.3514,0.3506,0.3486,0.3485,0.3484,0.3473,0.347,0.3468,0,0,0,0,0,0,0.3543,0.3542,0.3546,0.3531,0.3528,0.3526,0.3518,0.3522,0.3516,0.3518,0.352,0.3519,0.3507,0.3505,0.3512,0.3491,0.3499,0.3497,0.3492,0.3489,0.3487,0.3488,0.3522,0,0,0,0,0,0.3539,0.3531,0.3531,0.3518,0.3516,0.3517,0.3513,0.3516,0.3512,0.3511,0.3509,0.3505,0.3499,0.3494,0.3488,0.3472,0.3472,0.3466,0.3464,0.3462,0.346,0.3453,0.345,0.3479,0.3479,0.3479,0,0,0.3529,0.3528,0.3523,0.3515,0.3513,0.3506,0.3516,0.3507,0.3502,0.3509,0.3498,0.3497,0.3493,0.348,0.3474,0.3478,0.3452,0.346,0.3459,0.3458,0.3451,0.3449,0.3446,0.3478,0.3478,0.3478,0,0,0.3508,0.3506,0.3495,0.3493,0.349,0.3491,0.3489,0.3487,0.3487,0.3476,0.3482,0.3476,0.3464,0.3461,0.3458,0.3438,0.3442,0.3436,0.3425,0.3418,0.3416,0.3414,0.3407,0.3404,0.3435,0.3435,0.3435,0,0.3496,0.3485,0.3489,0.3481,0.3478,0.3485,0.3475,0.3473,0.3467,0.3465,0.347,0.3457,0.3454,0.3441,0.3437,0.3434,0.3431,0.3436,0.3416,0.3414,0.3412,0.3406,0.3403,0.3434,0.3434,0.3434,0.3434,0,0.3471,0.3463,0.3455,0.3451,0.3448,0.3438,0.3441,0.3437,0.344,0.3441,0.343,0.3429,0.3422,0.342,0.3422,0.3407,0.341,0.3415,0.3424,0.3408,0.3403,0.34,0.3433,0.3433,0.3433,0.3433,0,0,0.3439,0.3439,0.3436,0.3435,0.3433,0.3428,0.3419,0.3414,0.3411,0.3407,0.34,0.3391,0.3397,0.3394,0.3396,0.339,0.3376,0.3397,0.3397,0.3393,0.336,0.3355,0.3352,0.3379,0.3378,0.3378,0.336,0,0.3418,0.3403,0.3408,0.3393,0.3387,0.3396,0.3388,0.3387,0.3388,0.3383,0.3384,0.3377,0.3385,0.3383,0.3378,0.3379,0.3369,0.338,0.3372,0.3372,0.3373,0.3349,0.3344,0.3327,0.3358,0.3357,0.3357,0,0.3391,0.3388,0.3373,0.3374,0.3371,0.3365,0.3361,0.3356,0.3355,0.3356,0.3354,0.3358,0.3351,0.336,0.335,0.3357,0.3355,0.3355,0.3354,0.3353,0.3363,0.3347,0.3321,0.3318,0.3353,0.3354,0.3354,0,0.3369,0.3362,0.3352,0.3351,0.3351,0.3347,0.3347,0.3346,0.3343,0.3341,0.3339,0.3335,0.3333,0.333,0.3333,0.334,0.3322,0.3332,0.3323,0.3323,0.3318,0.3318,0.3291,0.3317,0.3318,0.3318,0.3318,0,0.3345,0.3335,0.3343,0.3337,0.3327,0.3333,0.3323,0.3324,0.3323,0.3318,0.3325,0.332,0.3325,0.332,0.3323,0.3314,0.3313,0.3314,0.3315,0.3313,0.3313,0.3311,0.3312,0.3317,0.3317,0.3317,0.3317,0,0.3319,0.3323,0.3313,0.3316,0.3316,0.3309,0.3311,0.3305,0.3308,0.3301,0.33,0.3303,0.3299,0.3302,0.3297,0.3299,0.3288,0.329,0.3288,0.3289,0.328,0.3281,0.325,0.3247,0.3275,0.3275,0.3275,0,0.3303,0.3296,0.3298,0.3295,0.3295,0.329,0.3288,0.3294,0.3291,0.3291,0.3286,0.3282,0.3279,0.3271,0.3273,0.3269,0.3272,0.3261,0.3271,0.327,0.3272,0.3272,0.3271,0.3259,0.3259,0.3258,0.3258,0,0.3273,0.3277,0.3273,0.3271,0.3268,0.3267,0.3266,0.3263,0.3269,0.3266,0.3262,0.326,0.3255,0.3251,0.3249,0.3249,0.3255,0.3256,0.3253,0.3251,0.325,0.3251,0.3282,0.3256,0.3256,0.3256,0.3256,0.3256,0.3252,0.3247,0.3248,0.3244,0.3244,0.3244,0.3239,0.3242,0.3239,0.3236,0.324,0.3235,0.3235,0.3233,0.3233,0.3229,0.3233,0.323,0.3229,0.3228,0.3227,0.3252,0.3228,0.3228,0.3228,0.3228,0.3229,0,0.3223,0.3225,0.3222,0.3221,0.3218,0.3225,0.3225,0.3222,0.3217,0.3218,0.3215,0.3211,0.3207,0.321,0.3208,0.3204,0.3207,0.3203,0.3203,0.3203,0.3223,0.3225,0.3201,0.3201,0.3201,0.3201,0.3201,0.3201,0.3208,0.32,0.3203,0.3196,0.3197,0.3193,0.3192,0.3192,0.3192,0.3187,0.3185,0.3187,0.3189,0.3187,0.3184,0.3185,0.3184,0.3179,0.3181,0.3199,0.3202,0.3204,0.3206,0.3179,0.3179,0.3162,0.3162,0.3162]},{"header":{"parameterUnit":"m.s-1","parameterCategory":1,"la1":30.2991,"la2":30.254,"lo1":-89.0895,"lo2":-89.0444,"dx":0.0017,"dy":0.0017,"nx":28,"ny":28,"refTime":"2022-12-24T09:00:00:Z","depth":0,"parameterNumber":3,"parameterNumberName":"V-component_of_WINDS"},"data":[0,0,0,0,0,0,0,0,0,0,0,0,0,0,0,0,0,0,0,0,0,0,0,0,0,0,0,0,0,0,0,0,0,0,0,0,0,0,0,0,0,0,0,0,0,0,0,0,0,0,0,0,0,0,0,0,0,0,-3.6765,-3.6766,0,-3.6871,-3.6873,-3.6874,-3.6851,-3.6849,-3.6847,-3.6846,-3.6952,-3.6956,-3.6961,0,0,0,0,0,0,0,0,0,0,0,0,0,-3.6538,-3.6543,-3.6765,-3.6766,-3.6768,-3.6871,-3.6873,-3.6874,-3.6852,-3.6849,-3.6847,-3.6845,-3.695,-3.6956,-3.6961,0,0,0,0,0,0,0,0,0,0,0,0,0,-3.664,-3.6544,-3.6765,-3.6769,-3.677,-3.6871,-3.6873,-3.6875,-3.6852,-3.6849,-3.6846,-3.6844,-3.6948,-3.6955,-3.6962,-3.7064,0,0,-3.6983,-3.6986,0,0,0,0,0,0,0,0,-3.6634,-3.6648,-3.6767,-3.6769,-3.6771,-3.6845,-3.6832,-3.6938,-3.6853,-3.6821,-3.6846,-3.6842,-3.6918,-3.6928,-3.6954,-3.7069,-3.7073,-3.6984,-3.6988,-3.6991,-3.6993,0,0,0,0,0,0,0,-3.6627,-3.6644,-3.6807,-3.6769,-3.6771,-3.6764,-3.6775,-3.6852,-3.6885,-3.6824,-3.6822,-3.6835,-3.6919,-3.6947,-3.6956,-3.7075,-3.6984,-3.699,-3.6994,-3.6997,-3.7276,-3.7279,0,0,0,0,0,0,-3.6619,-3.6638,-3.6804,-3.681,-3.6694,-3.6771,-3.6783,-3.6824,-3.6884,-3.689,-3.6838,-3.6834,-3.6937,-3.6948,-3.696,-3.7081,-3.6991,-3.6997,-3.7001,-3.7272,-3.7276,-3.728,0,0,0,0,0,0,-3.6614,-3.6634,-3.6799,-3.6724,-3.6744,-3.6778,-3.6824,-3.6828,-3.6856,-3.6895,-3.69,-3.6861,-3.6935,-3.695,-3.7038,-3.7084,-3.7001,-3.7007,-3.7269,-3.7274,-3.7278,-3.7326,0,0,0,0,0,0,-3.6608,-3.6633,-3.6673,-3.6725,-3.6748,-3.6877,-3.6827,-3.6832,-3.6869,-3.6865,-3.6918,-3.6924,-3.6934,-3.7027,-3.7045,-3.7093,-3.7012,-3.7265,-3.7271,-3.7277,-3.732,-3.7331,-3.7341,0,0,0,0,0,-3.66,-3.6682,-3.6675,-3.6695,-3.6799,-3.688,-3.6893,-3.6903,-3.6873,-3.6912,-3.6937,-3.6922,-3.7077,-3.7037,-3.7056,-3.7106,-3.7262,-3.7269,-3.7276,-3.7315,-3.7329,-3.7341,0,0,0,0,0,0,-3.6634,-3.6689,-3.6682,-3.6783,-3.6827,-3.6876,-3.6926,-3.6918,-3.6971,-3.6965,-3.6975,-3.6987,-3.7076,-3.71,-3.7054,-3.7207,-3.7165,-3.7176,-3.7188,-3.7201,-3.7212,-3.7203,-3.7018,0,0,0,0,0,-3.6653,-3.6715,-3.6759,-3.6844,-3.6866,-3.6893,-3.6928,-3.6932,-3.6978,-3.6996,-3.7027,-3.707,-3.7128,-3.7166,-3.7222,-3.7324,-3.7334,-3.7368,-3.7378,-3.7387,-3.7396,-3.7449,-3.7464,-3.7304,-3.7304,-3.7303,0,0,-3.6693,-3.6731,-3.6769,-3.6852,-3.6886,-3.6948,-3.6908,-3.6976,-3.7021,-3.7006,-3.709,-3.7114,-3.7163,-3.7258,-3.7301,-3.728,-3.7443,-3.7396,-3.7403,-3.7408,-3.7458,-3.7473,-3.7487,-3.7309,-3.7308,-3.7307,0,0,-3.6798,-3.6834,-3.6907,-3.6943,-3.6995,-3.7012,-3.703,-3.708,-3.7095,-3.718,-3.7169,-3.7223,-3.7323,-3.7358,-3.7389,-3.7505,-3.7493,-3.7523,-3.7578,-3.763,-3.7643,-3.7654,-3.7693,-3.7707,-3.7533,-3.7533,-3.7533,0,-3.6841,-3.6935,-3.6946,-3.7015,-3.705,-3.7039,-3.7113,-3.7146,-3.7214,-3.7238,-3.7215,-3.734,-3.7372,-3.7473,-3.7502,-3.7528,-3.7547,-3.7517,-3.764,-3.7651,-3.7662,-3.77,-3.7715,-3.7536,-3.7536,-3.7535,-3.7535,0,-3.6984,-3.705,-3.7103,-3.7169,-3.721,-3.7281,-3.7301,-3.7342,-3.7342,-3.7361,-3.7446,-3.7485,-3.7547,-3.7572,-3.7573,-3.7673,-3.7658,-3.7638,-3.7595,-3.768,-3.7716,-3.773,-3.7541,-3.7539,-3.7539,-3.7538,0,0,-3.7113,-3.7184,-3.7203,-3.7232,-3.7289,-3.7338,-3.7408,-3.7469,-3.7503,-3.755,-3.7607,-3.7692,-3.7673,-3.7708,-3.7712,-3.7758,-3.7845,-3.7732,-3.7733,-3.7749,-3.7954,-3.7968,-3.7985,-3.7838,-3.7841,-3.7843,-3.7949,0,-3.7221,-3.7345,-3.7356,-3.7465,-3.7524,-3.7514,-3.7574,-3.7615,-3.7634,-3.7685,-3.7706,-3.7765,-3.7736,-3.7757,-3.7802,-3.7825,-3.7886,-3.7818,-3.7889,-3.7891,-3.7875,-3.8004,-3.8019,-3.8118,-3.7964,-3.7966,-3.7968,0,-3.7364,-3.7415,-3.7531,-3.7578,-3.7603,-3.7657,-3.7713,-3.7764,-3.7808,-3.7819,-3.7857,-3.7856,-3.7925,-3.7881,-3.7975,-3.7929,-3.7958,-3.7974,-3.7978,-3.7983,-3.7933,-3.8011,-3.815,-3.8164,-3.799,-3.7988,-3.7987,0,-3.7444,-3.7542,-3.7623,-3.7648,-3.7706,-3.7743,-3.7769,-3.7811,-3.7846,-3.7895,-3.7918,-3.7974,-3.8005,-3.8048,-3.806,-3.8028,-3.8154,-3.8111,-3.8162,-3.8162,-3.8188,-3.8186,-3.8332,-3.8211,-3.821,-3.821,-3.821,0,-3.7563,-3.7633,-3.7659,-3.7709,-3.7787,-3.7799,-3.7875,-3.7898,-3.7936,-3.7988,-3.7983,-3.8033,-3.8048,-3.8099,-3.811,-3.8185,-3.8199,-3.8208,-3.821,-3.8208,-3.8206,-3.8226,-3.8219,-3.8214,-3.8213,-3.8212,-3.8212,0,-3.7664,-3.7685,-3.7772,-3.7819,-3.7832,-3.7888,-3.7927,-3.7974,-3.7992,-3.8058,-3.8075,-3.8102,-3.8163,-3.818,-3.8253,-3.826,-3.8347,-3.8344,-3.8332,-3.8332,-3.8381,-3.8375,-3.8543,-3.8565,-3.8431,-3.8432,-3.8434,0,-3.7738,-3.7792,-3.7844,-3.7879,-3.7906,-3.7963,-3.8,-3.8013,-3.805,-3.8104,-3.8144,-3.8204,-3.8252,-3.8349,-3.8375,-3.8429,-3.8426,-3.8481,-3.8434,-3.8429,-3.8424,-3.842,-3.8424,-3.8489,-3.849,-3.8492,-3.8493,0,-3.7865,-3.7873,-3.7926,-3.7982,-3.8025,-3.807,-3.8113,-3.8142,-3.816,-3.8203,-3.8265,-3.8302,-3.8376,-3.8434,-3.8489,-3.8514,-3.8506,-3.8507,-3.8522,-3.8519,-3.8509,-3.8513,-3.8354,-3.8503,-3.8502,-3.8501,-3.8501,-3.85,-3.7954,-3.8,-3.8044,-3.8103,-3.8136,-3.8176,-3.8222,-3.8245,-3.8297,-3.8359,-3.8363,-3.8429,-3.8471,-3.8544,-3.8572,-3.8623,-3.8606,-3.8628,-3.8633,-3.8637,-3.864,-3.8503,-3.8633,-3.8633,-3.8632,-3.8632,-3.8632,0,-3.8079,-3.8107,-3.816,-3.822,-3.8266,-3.8255,-3.8302,-3.834,-3.8399,-3.8439,-3.8486,-3.8556,-3.8612,-3.8642,-3.8698,-3.8733,-3.873,-3.8747,-3.8743,-3.8749,-3.8653,-3.8634,-3.8748,-3.8748,-3.8748,-3.8748,-3.8748,-3.8748,-3.815,-3.8227,-3.8239,-3.8333,-3.8359,-3.8425,-3.8452,-3.8488,-3.8519,-3.8598,-3.8645,-3.8664,-3.8699,-3.8757,-3.8808,-3.8815,-3.8835,-3.8853,-3.8858,-3.8768,-3.8756,-3.8744,-3.8726,-3.8858,-3.8858,-3.8949,-3.895,-3.8951]}]]